Weather History for KUIN - January, 2014

Change the Weather History Date:

Saturday, January 11, 2014

  Actual Average Record
Temperature  
Mean Temperature 35 °F 26 °F  
Max Temperature 43 °F 34 °F 59 °F (2013)
Min Temperature 26 °F 18 °F -15 °F (1977)
Degree Days  
Heating Degree Days 30 39  
Month to date heating degree days 541 425  
Since 1 July heating degree days 2857 2616  
Cooling Degree Days 0 0  
Month to date cooling degree days 0 0  
Year to date cooling degree days 0 0  
Moisture  
Dew Point 31 °F    
Average Humidity 79    
Maximum Humidity 100    
Minimum Humidity 57    
Precipitation  
Precipitation T in 0.04 in 1.06 in (1905)
Month to date precipitation 0.58 0.58  
Year to date precipitation 0.58 0.58  
Sea Level Pressure  
Sea Level Pressure 29.68 in    
Wind  
Wind Speed 11 mph (West)    
Max Wind Speed 21 mph    
Max Gust Speed 27 mph    
Visibility 8 miles    
Events Fog , Rain    
T = Trace of Precipitation, MM = Missing Value Source: NWS Daily Summary

Daily Weather History Graph

Daily Weather History Graph

Search for Another Location

Airport or City:

Trip Planner

Search our weather history database for the weather conditions in past years. The results will help you decide how hot, cold, wet, or windy it might be!

Date:

Astronomy

Jan. 11, 2014 Rise Set
Actual Time 7:25 AM CST 4:59 PM CST
Civil Twilight 6:55 AM CST 5:29 PM CST
Nautical Twilight 6:22 AM CST 6:03 PM CST
Astronomical Twilight 5:49 AM CST 6:36 PM CST
Moon 1:44 PM CST (1/11) 3:30 AM CST (1/11)
Length of Visible Light 10h 33m
Length of Day
9h 34m
Waxing Gibbous, 83% of the Moon is Illuminated
Jan 11
Waxing Gibbous
Jan 15
Full
Jan 23
Last Quarter
Jan 30
New
Feb 6
First Quarter

Hourly Weather History & Observations

Time (CST) Temp. Windchill Dew Point Humidity Pressure Visibility Wind Dir Wind Speed Gust Speed Precip Events Conditions
12:07 AM 39.0 °F 34.0 °F 37.9 °F 96% 29.53 in 2.5 mi West 6.9 mph - N/A   Overcast
12:16 AM 39.0 °F 34.0 °F 37.9 °F 96% 29.52 in 4.0 mi West 6.9 mph - N/A   Overcast
12:51 AM 37.4 °F 29.8 °F 35.6 °F 93% 29.52 in 1.8 mi West 11.5 mph - N/A   Overcast
12:52 AM 37.9 °F 30.5 °F 36.0 °F 93% 29.54 in 1.5 mi West 11.5 mph - N/A   Overcast
1:03 AM 37.0 °F 29.3 °F 36.0 °F 96% 29.52 in 0.5 mi WNW 11.5 mph - N/A Fog Fog
1:24 AM 37.0 °F 28.1 °F 35.1 °F 93% 29.53 in 1.8 mi West 15.0 mph 21.9 mph N/A   Overcast
1:29 AM 37.0 °F 28.9 °F 35.1 °F 93% 29.53 in 3.0 mi West 12.7 mph 21.9 mph N/A   Overcast
1:54 AM 36.0 °F 28.5 °F 35.1 °F 97% 29.54 in 7.0 mi WNW 10.4 mph - N/A   Overcast
2:12 AM 36.0 °F 29.6 °F 35.1 °F 97% 29.53 in 5.0 mi West 8.1 mph - N/A   Overcast
2:54 AM 36.0 °F 28.5 °F 34.0 °F 93% 29.56 in 7.0 mi West 10.4 mph - N/A   Overcast
3:54 AM 35.1 °F 26.4 °F 33.1 °F 92% 29.58 in 9.0 mi West 12.7 mph - N/A   Overcast
4:38 AM 35.1 °F 26.9 °F 32.0 °F 89% 29.59 in 10.0 mi West 11.5 mph - 0.00 in Rain Light Rain
4:45 AM 34.0 °F 25.0 °F 32.0 °F 92% 29.59 in 10.0 mi West 12.7 mph - 0.00 in Rain Light Rain
4:54 AM 34.0 °F 25.5 °F 32.0 °F 92% 29.61 in 8.0 mi West 11.5 mph - 0.00 in Rain Light Rain
5:54 AM 35.1 °F 26.4 °F 30.9 °F 85% 29.62 in 9.0 mi West 12.7 mph - 0.00 in   Overcast
6:54 AM 34.0 °F 24.6 °F 30.9 °F 89% 29.63 in 8.0 mi West 13.8 mph - N/A   Overcast
7:54 AM 34.0 °F 25.5 °F 30.9 °F 89% 29.65 in 7.0 mi West 11.5 mph 20.7 mph N/A   Overcast
8:54 AM 35.1 °F 26.4 °F 30.0 °F 82% 29.68 in 7.0 mi West 12.7 mph - N/A   Overcast
9:26 AM 35.1 °F 26.9 °F 30.0 °F 82% 29.68 in 8.0 mi West 11.5 mph - N/A   Partly Cloudy
9:54 AM 36.0 °F 28.5 °F 30.9 °F 82% 29.70 in 9.0 mi West 10.4 mph - N/A   Clear
10:54 AM 37.9 °F 29.6 °F 30.9 °F 76% 29.71 in 10.0 mi West 13.8 mph - N/A   Clear
11:54 AM 39.9 °F 32.9 °F 30.0 °F 68% 29.69 in 10.0 mi West 11.5 mph - N/A   Clear
12:54 PM 41.0 °F 33.5 °F 30.0 °F 65% 29.68 in 10.0 mi West 13.8 mph - N/A   Clear
1:54 PM 42.1 °F 33.9 °F 30.0 °F 62% 29.68 in 10.0 mi West 17.3 mph 24.2 mph N/A   Clear
2:54 PM 42.1 °F 33.6 °F 28.9 °F 60% 29.70 in 10.0 mi West 18.4 mph 26.5 mph N/A   Clear
3:54 PM 41.0 °F 33.5 °F 28.9 °F 62% 29.74 in 10.0 mi West 13.8 mph 21.9 mph N/A   Clear
4:54 PM 39.0 °F 31.8 °F 27.0 °F 62% 29.78 in 10.0 mi West 11.5 mph - N/A   Clear
5:54 PM 37.0 °F 29.8 °F 28.0 °F 70% 29.80 in 10.0 mi West 10.4 mph - N/A   Clear
6:54 PM 35.1 °F 28.6 °F 27.0 °F 72% 29.83 in 10.0 mi WNW 8.1 mph - N/A   Clear
7:25 PM 35.1 °F 27.4 °F 27.0 °F 72% 29.83 in 10.0 mi WNW 10.4 mph - N/A   Mostly Cloudy
7:36 PM 35.1 °F 26.9 °F 27.0 °F 72% 29.84 in 10.0 mi WNW 11.5 mph - N/A   Scattered Clouds
7:54 PM 34.0 °F 26.0 °F 27.0 °F 75% 29.86 in 10.0 mi WNW 10.4 mph - N/A   Clear
8:54 PM 30.0 °F 24.1 °F 26.1 °F 85% 29.90 in 10.0 mi NW 5.8 mph - N/A   Clear
9:54 PM 28.9 °F 23.9 °F 25.0 °F 85% 29.91 in 10.0 mi WNW 4.6 mph - N/A   Clear
10:54 PM 28.0 °F 24.2 °F 25.0 °F 88% 29.92 in 10.0 mi WSW 3.5 mph - N/A   Clear
11:54 PM 27.0 °F 20.5 °F 24.1 °F 89% 29.93 in 10.0 mi WSW 5.8 mph - N/A   Clear